Home > Weather > Tuscaloosa > Past weeks

Flag for USA Past Weather in Tuscaloosa, Alabama, USA — Yesterday and Last 2 Weeks

Now
76 °F

Clear.


Feels Like: 76 °F
Forecast: 73 / 96 °F
Wind: No wind

Location: Tuscaloosa Municipal Airport

Current Time: Jul 2, 2016 at 2:31:26 AM

Latest Report: Jul 2, 2016 at 1:53 AM


Visibility: 10 mi

Pressure: 29.99 "Hg

Humidity: 91%

Dew Point: 73 °F

Location of TuscaloosaLocation

Past Weather in Tuscaloosa — Graph

°F

Tuscaloosa Temperature Yesterday

Maximum temperature yesterday: 94 °F (at 3:53 PM)
Minimum temperature yesterday: 61 °F (at 5:53 AM)
Average temperature yesterday: 79 °F

High & Low Weather Summary for the Past Weeks

 TemperatureHumidityPressure
High95 °F (Jun 25, 3:53 PM)100% (Jun 17, 4:53 AM)30.31 "Hg (Jun 17, 4:53 AM)
Low61 °F (Jul 1, 5:53 AM)26% (Jun 30, 3:53 PM)29.83 "Hg (Jun 17, 1:53 PM)
Average80 °F75%30.05 "Hg
* Reported Jun 17 12:53 AM — Jul 2 12:53 AM, Tuscaloosa, Weather by CustomWeather, © 2016

Note: Actual official high and low records may vary slightly from our data, if they occured in-between our weather recording intervals... More about our weather records

Advertising

Tuscaloosa Weather History for the Previous 24 Hours

Scroll right to see more
 ConditionsComfort  
Time TempWeatherWind HumidityBarometerVisibility
12:53 AM
Sat, Jul 2
78 °FPassing clouds.No wind87%30.00 "Hg10 mi
11:53 PM
Fri, Jul 1
76 °FPassing clouds.3 mph94%30.01 "Hg10 mi
10:53 PM78 °FPartly cloudy.No wind84%30.00 "Hg10 mi
9:53 PM79 °FPassing clouds.No wind79%29.98 "Hg10 mi
8:53 PM80 °FSunny.No wind74%29.96 "Hg10 mi
7:53 PM85 °FSunny.No wind59%29.96 "Hg10 mi
6:53 PM91 °FSunny.3 mph42%29.95 "Hg10 mi
5:53 PM93 °FSunny.8 mph37%29.95 "Hg10 mi
4:53 PM93 °FSunny.7 mph40%29.96 "Hg10 mi
3:53 PM94 °FSunny.7 mph37%29.96 "Hg10 mi
2:53 PM93 °FSunny.5 mph38%29.98 "Hg10 mi
1:53 PM92 °FSunny.9 mph38%29.99 "Hg10 mi
12:53 PM90 °FSunny.3 mph39%30.01 "Hg10 mi
11:53 AM89 °FSunny.No wind41%30.02 "Hg10 mi
10:53 AM85 °FSunny.6 mph48%30.03 "Hg10 mi
9:53 AM82 °FSunny.3 mph48%30.03 "Hg10 mi
8:53 AM78 °FSunny.No wind60%30.03 "Hg10 mi
7:53 AM71 °FSunny.5 mph78%30.03 "Hg10 mi
6:53 AM65 °FSunny.No wind91%30.01 "Hg10 mi
5:53 AM61 °FClear.No wind97%30.00 "Hg10 mi
4:53 AM62 °FClear.No wind93%29.98 "Hg10 mi
3:53 AM62 °FClear.No wind96%29.96 "Hg10 mi
2:53 AM63 °FClear.No wind97%29.95 "Hg10 mi
Weather by CustomWeather, © 2016

See weather overviewHow to use our weather pages